Location: Newark
(51.0089°N, 21.5817°E)
Time: 12:44:25
(UTC+00:00)

STARS - Pass Details

Date: 22 February 2020
Orbit: 625 x 639 km, 98.3° (Epoch: 03 April)

Event Time Altitude Azimuth Distance (km) Brightness Sun altitude
Rises 04:23:54 0° 111° (ESE) 2,915 ? -11.7°
Reaches altitude 10° 04:27:02 10° 86° (E) 2,010 ? -11.2°
Maximum altitude 04:29:17 14° 55° (NE) 1,756 ? -10.9°
Drops below altitude 10° 04:31:32 10° 24° (NNE) 2,014 ? -10.5°
Sets 04:34:40 0° 359° (N) 2,925 ? -10.0°
